| time (UTC) | temp F | wind direction | speed MPH | gust MPH | rain 1hr in | rain 24hr in | rain mn in | humidity % | barometer mb |
| 20260903162647 | 88 | 24 | 4.0 | 8.0 | 0.00 | 0.00 | 0.00 | 73 | 1015.2 |
| 20260903162148 | 88 | 47 | 3.0 | 8.0 | 0.00 | 0.00 | 0.00 | 73 | 1015.2 |
| 20260903161648 | 88 | 26 | 3.0 | 9.0 | 0.00 | 0.00 | 0.00 | 74 | 1015.6 |
| 20260903161147 | 88 | 325 | 1.0 | 7.0 | 0.00 | 0.00 | 0.00 | 75 | 1015.2 |
| 20260903160647 | 88 | 360 | 6.0 | 11.0 | 0.00 | 0.00 | 0.00 | 74 | 1015.2 |
| 20260903160149 | 88 | 1 | 2.0 | 8.0 | 0.00 | 0.00 | 0.00 | 74 | 1015.2 |
| 20260903155647 | 87 | 328 | 6.0 | 8.0 | 0.00 | 0.00 | 0.00 | 76 | 1015.6 |
| 20260903155147 | 87 | 360 | 4.0 | 6.0 | 0.00 | 0.00 | 0.00 | 77 | 1015.2 |
| 20260903154647 | 86 | 1 | 4.0 | 6.0 | 0.00 | 0.00 | 0.00 | 78 | 1015.2 |
| 20260903154147 | 87 | 62 | 3.0 | 9.0 | 0.00 | 0.00 | 0.00 | 78 | 1015.2 |
| 20260903153647 | 87 | 47 | 4.0 | 8.0 | 0.00 | 0.00 | 0.00 | 77 | 1015.2 |
| 20260903153147 | 86 | 354 | 2.0 | 6.0 | 0.00 | 0.00 | 0.00 | 78 | 1015.2 |
| 20260903152647 | 87 | 25 | 3.0 | 7.0 | 0.00 | 0.00 | 0.00 | 78 | 1015.2 |
| 20260903152146 | 87 | 18 | 8.0 | 8.0 | 0.00 | 0.00 | 0.00 | 77 | 1015.2 |
| 20260903151647 | 87 | 353 | 3.0 | 7.0 | 0.00 | 0.00 | 0.00 | 76 | 1014.9 |
| 20260903151146 | 88 | 346 | 3.0 | 7.0 | 0.00 | 0.00 | 0.00 | 76 | 1014.9 |
| 20260903150648 | 88 | 51 | 4.0 | 6.0 | 0.00 | 0.00 | 0.00 | 69 | 1015.2 |
| 20260903150146 | 89 | 70 | 6.0 | 8.0 | 0.00 | 0.00 | 0.00 | 66 | 1015.2 |
| 20260903145646 | 89 | 29 | 1.0 | 4.0 | 0.00 | 0.00 | 0.00 | 67 | 1015.2 |
| 20260903145148 | 88 | 227 | 2.0 | 4.0 | 0.00 | 0.00 | 0.00 | 70 | 1014.9 |
| 20260903144648 | 89 | 344 | 4.0 | 6.0 | 0.00 | 0.00 | 0.00 | 68 | 1014.9 |
| 20260903144148 | 88 | 302 | 2.0 | 3.0 | 0.00 | 0.00 | 0.00 | 73 | 1014.9 |
| 20260903143650 | 87 | 318 | 2.0 | 5.0 | 0.00 | 0.00 | 0.00 | 74 | 1015.2 |
| 20260903143147 | 87 | 317 | 3.0 | 4.0 | 0.00 | 0.00 | 0.00 | 72 | 1015.2 |
| 20260903142647 | 87 | 51 | 8.0 | 9.0 | 0.00 | 0.00 | 0.00 | 71 | 1015.2 |
| 20260903142147 | 87 | 357 | 2.0 | 8.0 | 0.00 | 0.00 | 0.00 | 74 | 1015.2 |
| 20260903141646 | 87 | 47 | 5.0 | 5.0 | 0.00 | 0.00 | 0.00 | 74 | 1015.2 |
| 20260903141147 | 87 | 75 | 3.0 | 5.0 | 0.00 | 0.00 | 0.00 | 74 | 1015.2 |
| 20260903140647 | 87 | 2 | 4.0 | 5.0 | 0.00 | 0.00 | 0.00 | 74 | 1015.2 |
| 20260903140147 | 87 | 357 | 2.0 | 5.0 | 0.00 | 0.00 | 0.00 | 75 | 1015.2 |
| 20260903135647 | 87 | 347 | 3.0 | 4.0 | 0.00 | 0.00 | 0.00 | 74 | 1015.2 |
| 20260903135147 | 86 | 324 | 0.0 | 4.0 | 0.00 | 0.00 | 0.00 | 75 | 1015.2 |
| 20260903134646 | 86 | 329 | 4.0 | 5.0 | 0.00 | 0.00 | 0.00 | 74 | 1015.2 |
| 20260903134147 | 87 | 53 | 2.0 | 4.0 | 0.00 | 0.00 | 0.00 | 75 | 1015.2 |
| 20260903133649 | 87 | 81 | 3.0 | 4.0 | 0.00 | 0.00 | 0.00 | 75 | 1015.2 |
| 20260903133147 | 86 | 51 | 3.0 | 5.0 | 0.00 | 0.00 | 0.00 | 76 | 1015.2 |
| 20260903132647 | 86 | 330 | 1.0 | 3.0 | 0.00 | 0.00 | 0.00 | 78 | 1015.2 |
| 20260903132147 | 86 | 331 | 2.0 | 3.0 | 0.00 | 0.00 | 0.00 | 79 | 1015.2 |
| 20260903131647 | 86 | 62 | 2.0 | 4.0 | 0.00 | 0.00 | 0.00 | 77 | 1015.2 |
| 20260903131147 | 86 | 310 | 0.0 | 1.0 | 0.00 | 0.00 | 0.00 | 78 | 1015.2 |
| 20260903130646 | 87 | 92 | 1.0 | 3.0 | 0.00 | 0.00 | 0.00 | 77 | 1015.2 |
| 20260903130147 | 86 | 262 | 0.0 | 2.0 | 0.00 | 0.00 | 0.00 | 79 | 1015.2 |
| 20260903125647 | 85 | 350 | 1.0 | 3.0 | 0.00 | 0.00 | 0.00 | 82 | 1015.2 |
| 20260903125146 | 84 | 325 | 1.0 | 3.0 | 0.00 | 0.00 | 0.00 | 85 | 1015.2 |
| 20260903124647 | 83 | 46 | 1.0 | 3.0 | 0.00 | 0.00 | 0.00 | 86 | 1014.9 |
| 20260903124146 | 83 | 300 | 1.0 | 2.0 | 0.00 | 0.00 | 0.00 | 87 | 1015.2 |
| 20260903123647 | 83 | 181 | 2.0 | 3.0 | 0.00 | 0.00 | 0.00 | 88 | 1015.2 |
| 20260903123149 | 82 | 105 | 0.0 | 3.0 | 0.00 | 0.00 | 0.00 | 90 | 1015.2 |
| 20260903122647 | 81 | 269 | 0.0 | 3.0 | 0.00 | 0.00 | 0.00 | 93 | 1015.2 |
| 20260903122147 | 80 | 323 | 1.0 | 3.0 | 0.00 | 0.00 | 0.00 | 95 | 1014.9 |
| 20260903121650 | 80 | 182 | 2.0 | 3.0 | 0.00 | 0.00 | 0.00 | 95 | 1015.2 |
| 20260903121146 | 79 | 187 | 2.0 | 3.0 | 0.00 | 0.00 | 0.00 | 96 | 1014.9 |
| 20260903120647 | 79 | 169 | 0.0 | 3.0 | 0.00 | 0.00 | 0.00 | 96 | 1014.9 |
| 20260903120147 | 79 | 269 | 0.0 | 3.0 | 0.00 | 0.00 | 0.00 | 97 | 1015.2 |
| 20260903115646 | 78 | 272 | 1.0 | 3.0 | 0.00 | 0.00 | 0.00 | 97 | 1014.9 |
| 20260903115146 | 78 | 132 | 2.0 | 3.0 | 0.00 | 0.00 | 0.00 | 97 | 1014.9 |
| 20260903114646 | 78 | 323 | 2.0 | 4.0 | 0.00 | 0.00 | 0.00 | 97 | 1014.9 |
| 20260903114149 | 78 | 84 | 2.0 | 3.0 | 0.00 | 0.00 | 0.00 | 97 | 1014.9 |
| 20260903113650 | 78 | 276 | 2.0 | 3.0 | 0.00 | 0.00 | 0.00 | 97 | 1014.9 |
| 20260903113147 | 78 | 30 | 1.0 | 3.0 | 0.00 | 0.00 | 0.00 | 97 | 1014.6 |
| 20260903112648 | 78 | 196 | 1.0 | 3.0 | 0.00 | 0.00 | 0.00 | 97 | 1014.6 |
| 20260903112147 | 78 | 271 | 1.0 | 2.0 | 0.00 | 0.00 | 0.00 | 96 | 1014.6 |
| 20260903111646 | 79 | 173 | 0.0 | 3.0 | 0.00 | 0.00 | 0.00 | 96 | 1014.2 |
| 20260903111149 | 79 | 227 | 0.0 | 2.0 | 0.00 | 0.00 | 0.00 | 96 | 1014.2 |
| 20260903110647 | 79 | 304 | 0.0 | 2.0 | 0.00 | 0.00 | 0.00 | 96 | 1014.2 |
| 20260903110146 | 79 | 315 | 0.0 | 1.0 | 0.00 | 0.00 | 0.00 | 96 | 1014.2 |
| 20260903105647 | 79 | 224 | 0.0 | 0.0 | 0.00 | 0.00 | 0.00 | 96 | 1014.2 |
| 20260903105146 | 79 | 245 | 1.0 | 1.0 | 0.00 | 0.00 | 0.00 | 96 | 1014.2 |
| 20260903104648 | 79 | 241 | 0.0 | 1.0 | 0.00 | 0.00 | 0.00 | 96 | 1014.2 |
| 20260903104146 | 79 | 242 | 1.0 | 1.0 | 0.00 | 0.00 | 0.00 | 95 | 1014.2 |
| 20260903103648 | 79 | 165 | 0.0 | 1.0 | 0.00 | 0.00 | 0.00 | 95 | 1014.2 |
| 20260903103148 | 79 | 224 | 1.0 | 1.0 | 0.00 | 0.00 | 0.00 | 95 | 1014.2 |
| 20260903102647 | 80 | 225 | 0.0 | 1.0 | 0.00 | 0.00 | 0.00 | 94 | 1014.2 |
| 20260903102146 | 80 | 230 | 1.0 | 2.0 | 0.00 | 0.00 | 0.00 | 93 | 1014.2 |
| 20260903101647 | 80 | 322 | 0.0 | 2.0 | 0.00 | 0.00 | 0.00 | 93 | 1014.2 |
| 20260903101147 | 80 | 31 | 0.0 | 2.0 | 0.00 | 0.00 | 0.00 | 93 | 1014.2 |
| 20260903100647 | 80 | 66 | 0.0 | 2.0 | 0.00 | 0.00 | 0.00 | 93 | 1014.2 |
| 20260903100146 | 80 | 58 | 2.0 | 3.0 | 0.00 | 0.00 | 0.00 | 94 | 1013.9 |
| 20260903095646 | 80 | 55 | 0.0 | 3.0 | 0.00 | 0.00 | 0.00 | 95 | 1014.2 |
| 20260903095146 | 80 | 76 | 0.0 | 1.0 | 0.00 | 0.00 | 0.00 | 95 | 1013.9 |
| 20260903094646 | 79 | 65 | 0.0 | 2.0 | 0.00 | 0.00 | 0.00 | 96 | 1013.9 |
| 20260903094146 | 79 | 123 | 0.0 | 1.0 | 0.00 | 0.00 | 0.00 | 97 | 1013.9 |
| 20260903093649 | 79 | 135 | 0.0 | 0.0 | 0.00 | 0.00 | 0.00 | 96 | 1013.9 |
| 20260903093147 | 79 | 217 | 0.0 | 1.0 | 0.00 | 0.00 | 0.00 | 97 | 1013.9 |
| 20260903092646 | 79 | 176 | 1.0 | 2.0 | 0.00 | 0.00 | 0.00 | 97 | 1013.9 |
| 20260903092146 | 79 | 137 | 0.0 | 2.0 | 0.00 | 0.00 | 0.00 | 97 | 1013.9 |
| 20260903091646 | 79 | 104 | 0.0 | 2.0 | 0.00 | 0.00 | 0.00 | 98 | 1013.9 |
| 20260903091155 | 79 | 224 | 0.0 | 1.0 | 0.00 | 0.00 | 0.00 | 97 | 1013.9 |
| 20260903090649 | 79 | 217 | 1.0 | 2.0 | 0.00 | 0.00 | 0.00 | 98 | 1014.2 |
| 20260903090147 | 79 | 202 | 0.0 | 1.0 | 0.00 | 0.00 | 0.00 | 97 | 1013.9 |
| 20260903085647 | 79 | 224 | 0.0 | 1.0 | 0.00 | 0.00 | 0.00 | 97 | 1013.9 |
| 20260903085147 | 79 | 246 | 0.0 | 1.0 | 0.00 | 0.00 | 0.00 | 97 | 1013.9 |
| 20260903084646 | 79 | 227 | 0.0 | 0.0 | 0.00 | 0.00 | 0.00 | 97 | 1014.2 |
| 20260903084146 | 79 | 230 | 0.0 | 1.0 | 0.00 | 0.00 | 0.00 | 97 | 1013.9 |
| 20260903083647 | 79 | 242 | 0.0 | 1.0 | 0.00 | 0.00 | 0.00 | 97 | 1013.9 |
| 20260903083146 | 79 | 129 | 0.0 | 0.0 | 0.00 | 0.00 | 0.00 | 97 | 1013.9 |
| 20260903082647 | 79 | 169 | 0.0 | 0.0 | 0.00 | 0.00 | 0.00 | 97 | 1013.9 |
| 20260903082146 | 79 | 44 | 0.0 | 0.0 | 0.00 | 0.00 | 0.00 | 97 | 1013.9 |
| 20260903081647 | 79 | 129 | 0.0 | 0.0 | 0.00 | 0.00 | 0.00 | 96 | 1014.2 |
| 20260903081147 | 79 | 231 | 0.0 | 1.0 | 0.00 | 0.00 | 0.00 | 96 | 1013.9 |
| 20260903080647 | 79 | 242 | 0.0 | 1.0 | 0.00 | 0.00 | 0.00 | 96 | 1013.9 |
| 20260903080147 | 79 | 216 | 1.0 | 2.0 | 0.00 | 0.00 | 0.00 | 96 | 1014.2 |
| 20260903075646 | 79 | 183 | 1.0 | 2.0 | 0.00 | 0.00 | 0.00 | 96 | 1013.9 |
| 20260903075147 | 80 | 246 | 0.0 | 1.0 | 0.00 | 0.00 | 0.00 | 96 | 1014.2 |
| 20260903074654 | 80 | 250 | 1.0 | 2.0 | 0.00 | 0.00 | 0.00 | 96 | 1014.2 |
| 20260903074146 | 80 | 224 | 0.0 | 1.0 | 0.00 | 0.00 | 0.00 | 96 | 1013.9 |
| 20260903073647 | 80 | 279 | 0.0 | 1.0 | 0.00 | 0.00 | 0.00 | 96 | 1014.2 |
| 20260903073148 | 80 | 217 | 0.0 | 0.0 | 0.00 | 0.00 | 0.00 | 95 | 1014.2 |
| 20260903072650 | 80 | 238 | 0.0 | 1.0 | 0.00 | 0.00 | 0.00 | 95 | 1013.9 |
| 20260903072147 | 80 | 227 | 0.0 | 2.0 | 0.00 | 0.00 | 0.00 | 95 | 1014.2 |
| 20260903071647 | 80 | 256 | 0.0 | 1.0 | 0.00 | 0.00 | 0.00 | 95 | 1014.2 |
| 20260903071148 | 80 | 343 | 0.0 | 1.0 | 0.00 | 0.00 | 0.00 | 96 | 1014.2 |
| 20260903070646 | 80 | 315 | 0.0 | 1.0 | 0.00 | 0.00 | 0.00 | 96 | 1014.2 |
| 20260903070148 | 80 | 217 | 0.0 | 2.0 | 0.00 | 0.00 | 0.00 | 96 | 1014.6 |
| 20260903065647 | 80 | 235 | 1.0 | 2.0 | 0.00 | 0.00 | 0.00 | 96 | 1014.6 |
| 20260903065147 | 80 | 205 | 0.0 | 2.0 | 0.00 | 0.00 | 0.00 | 96 | 1014.6 |
| 20260903064646 | 80 | 223 | 1.0 | 2.0 | 0.00 | 0.00 | 0.00 | 96 | 1014.6 |
| 20260903064146 | 80 | 204 | 1.0 | 1.0 | 0.00 | 0.00 | 0.00 | 95 | 1014.6 |
| 20260903063646 | 80 | 220 | 0.0 | 1.0 | 0.00 | 0.00 | 0.00 | 95 | 1014.6 |
| 20260903063146 | 80 | 252 | 0.0 | 1.0 | 0.00 | 0.00 | 0.00 | 95 | 1014.6 |
| 20260903062647 | 80 | 242 | 0.0 | 1.0 | 0.00 | 0.00 | 0.00 | 95 | 1014.6 |
| 20260903062146 | 80 | 222 | 1.0 | 2.0 | 0.00 | 0.00 | 0.00 | 95 | 1014.9 |
| 20260903061648 | 80 | 231 | 1.0 | 2.0 | 0.00 | 0.00 | 0.00 | 95 | 1014.9 |
| 20260903061146 | 80 | 224 | 0.0 | 1.0 | 0.00 | 0.00 | 0.00 | 95 | 1014.9 |
| 20260903060646 | 80 | 259 | 0.0 | 1.0 | 0.00 | 0.00 | 0.00 | 95 | 1014.9 |
| 20260903060152 | 80 | 233 | 0.0 | 0.0 | 0.00 | 0.00 | 0.00 | 95 | 1014.6 |
| 20260903055648 | 80 | 224 | 0.0 | 1.0 | 0.00 | 0.00 | 0.00 | 95 | 1014.9 |
| 20260903055147 | 80 | 247 | 0.0 | 1.0 | 0.00 | 0.00 | 0.00 | 95 | 1014.9 |
| 20260903054646 | 80 | 227 | 0.0 | 2.0 | 0.00 | 0.00 | 0.00 | 96 | 1014.9 |
| 20260903054146 | 80 | 205 | 0.0 | 0.0 | 0.00 | 0.00 | 0.00 | 95 | 1015.2 |
| 20260903053647 | 80 | 293 | 0.0 | 0.0 | 0.00 | 0.00 | 0.00 | 95 | 1014.9 |
| 20260903053147 | 80 | 224 | 0.0 | 1.0 | 0.00 | 0.00 | 0.00 | 95 | 1014.9 |
| 20260903052646 | 80 | 184 | 1.0 | 1.0 | 0.00 | 0.00 | 0.00 | 95 | 1014.9 |
| 20260903052146 | 80 | 216 | 0.0 | 1.0 | 0.00 | 0.00 | 0.00 | 94 | 1014.9 |
| 20260903051647 | 81 | 180 | 0.0 | 1.0 | 0.00 | 0.00 | 0.00 | 93 | 1014.9 |
| 20260903051146 | 81 | 205 | 0.0 | 1.0 | 0.00 | 0.00 | 0.00 | 93 | 1015.2 |
| 20260903050647 | 81 | 229 | 0.0 | 2.0 | 0.00 | 0.00 | 0.00 | 94 | 1015.2 |
| 20260903050147 | 81 | 249 | 1.0 | 2.0 | 0.00 | 0.00 | 0.00 | 94 | 1015.2 |
| 20260903045647 | 81 | 217 | 0.0 | 1.0 | 0.00 | 0.00 | 0.68 | 93 | 1014.9 |
| 20260903045147 | 81 | 234 | 0.0 | 1.0 | 0.00 | 0.00 | 0.68 | 93 | 1015.2 |
| 20260903044647 | 81 | 344 | 0.0 | 1.0 | 0.00 | 0.00 | 0.68 | 93 | 1015.2 |
| 20260903044146 | 81 | 212 | 0.0 | 0.0 | 0.00 | 0.00 | 0.68 | 93 | 1015.2 |
| 20260903043647 | 81 | 224 | 0.0 | 0.0 | 0.00 | 0.00 | 0.68 | 92 | 1015.2 |
| 20260903043146 | 81 | 230 | 0.0 | 0.0 | 0.00 | 0.00 | 0.68 | 92 | 1015.2 |
| 20260903042647 | 81 | 224 | 0.0 | 0.0 | 0.00 | 0.00 | 0.68 | 92 | 1015.2 |
| 20260903042146 | 82 | 224 | 0.0 | 0.0 | 0.00 | 0.00 | 0.68 | 91 | 1015.2 |
| 20260903041646 | 82 | 230 | 0.0 | 1.0 | 0.00 | 0.00 | 0.68 | 91 | 1015.2 |
| 20260903041147 | 82 | 209 | 1.0 | 2.0 | 0.00 | 0.00 | 0.68 | 91 | 1015.2 |
| 20260903040647 | 82 | 228 | 1.0 | 2.0 | 0.00 | 0.00 | 0.68 | 91 | 1015.2 |
| 20260903040146 | 82 | 228 | 0.0 | 2.0 | 0.00 | 0.00 | 0.68 | 91 | 1015.2 |
| 20260903035646 | 82 | 220 | 1.0 | 2.0 | 0.00 | 0.00 | 0.68 | 91 | 1015.2 |
| 20260903035147 | 82 | 227 | 0.0 | 2.0 | 0.00 | 0.00 | 0.68 | 91 | 1015.6 |
| 20260903034646 | 82 | 175 | 2.0 | 2.0 | 0.00 | 0.00 | 0.68 | 91 | 1015.6 |
| 20260903034147 | 82 | 199 | 1.0 | 2.0 | 0.00 | 0.00 | 0.68 | 90 | 1015.6 |
| 20260903033646 | 82 | 249 | 0.0 | 1.0 | 0.00 | 0.00 | 0.68 | 90 | 1015.2 |
| 20260903033146 | 82 | 209 | 0.0 | 1.0 | 0.00 | 0.00 | 0.68 | 89 | 1015.6 |
| 20260903032647 | 83 | 149 | 0.0 | 0.0 | 0.00 | 0.00 | 0.68 | 88 | 1015.6 |
| 20260903032146 | 83 | 89 | 0.0 | 1.0 | 0.00 | 0.00 | 0.68 | 89 | 1015.2 |
| 20260903031646 | 82 | 144 | 0.0 | 2.0 | 0.00 | 0.00 | 0.68 | 90 | 1015.6 |
| 20260903031146 | 82 | 224 | 0.0 | 0.0 | 0.00 | 0.00 | 0.68 | 90 | 1015.6 |
| 20260903030647 | 82 | 224 | 0.0 | 1.0 | 0.00 | 0.00 | 0.68 | 90 | 1015.2 |
| 20260903030148 | 82 | 171 | 1.0 | 2.0 | 0.00 | 0.00 | 0.68 | 89 | 1015.2 |
| 20260903025646 | 82 | 195 | 0.0 | 1.0 | 0.00 | 0.00 | 0.68 | 89 | 1015.2 |
| 20260903025146 | 83 | 217 | 0.0 | 0.0 | 0.00 | 0.00 | 0.68 | 89 | 1015.6 |
| 20260903024647 | 83 | 180 | 0.0 | 0.0 | 0.00 | 0.00 | 0.68 | 88 | 1015.6 |
| 20260903024146 | 83 | 180 | 2.0 | 2.0 | 0.00 | 0.00 | 0.68 | 89 | 1015.6 |
| 20260903023646 | 83 | 175 | 2.0 | 2.0 | 0.00 | 0.00 | 0.68 | 89 | 1015.2 |
| 20260903023148 | 83 | 179 | 1.0 | 2.0 | 0.00 | 0.00 | 0.68 | 88 | 1015.2 |
| 20260903022648 | 83 | 168 | 0.0 | 2.0 | 0.00 | 0.00 | 0.68 | 88 | 1015.2 |
| 20260903022146 | 83 | 201 | 1.0 | 2.0 | 0.00 | 0.00 | 0.68 | 88 | 1015.2 |
| 20260903021646 | 83 | 200 | 2.0 | 2.0 | 0.00 | 0.00 | 0.68 | 88 | 1015.2 |
| 20260903021147 | 83 | 183 | 1.0 | 2.0 | 0.00 | 0.00 | 0.68 | 87 | 1015.2 |
| 20260903020647 | 83 | 202 | 1.0 | 2.0 | 0.00 | 0.00 | 0.68 | 87 | 1015.2 |
| 20260903020147 | 83 | 184 | 1.0 | 2.0 | 0.00 | 0.00 | 0.68 | 87 | 1015.2 |
| 20260903015647 | 83 | 173 | 2.0 | 2.0 | 0.00 | 0.00 | 0.68 | 86 | 1014.9 |
| 20260903015149 | 83 | 193 | 0.0 | 2.0 | 0.00 | 0.00 | 0.68 | 86 | 1014.9 |
| 20260903014646 | 83 | 184 | 0.0 | 2.0 | 0.00 | 0.00 | 0.68 | 86 | 1014.9 |
| 20260903014147 | 83 | 180 | 2.0 | 2.0 | 0.00 | 0.00 | 0.68 | 86 | 1014.9 |
| 20260903013648 | 84 | 165 | 2.0 | 3.0 | 0.00 | 0.00 | 0.68 | 85 | 1014.9 |
| 20260903013148 | 84 | 168 | 2.0 | 3.0 | 0.00 | 0.00 | 0.68 | 85 | 1014.6 |
| 20260903012651 | 84 | 169 | 1.0 | 2.0 | 0.00 | 0.00 | 0.68 | 85 | 1014.6 |
| 20260903012147 | 83 | 161 | 2.0 | 3.0 | 0.00 | 0.00 | 0.68 | 86 | 1014.6 |
| 20260903011649 | 84 | 179 | 1.0 | 3.0 | 0.00 | 0.00 | 0.68 | 85 | 1014.6 |
| 20260903011147 | 84 | 180 | 1.0 | 2.0 | 0.00 | 0.00 | 0.68 | 84 | 1014.6 |
| 20260903010647 | 84 | 168 | 2.0 | 3.0 | 0.00 | 0.00 | 0.68 | 84 | 1014.2 |
| 20260903010148 | 84 | 187 | 2.0 | 2.0 | 0.00 | 0.00 | 0.68 | 85 | 1014.6 |
| 20260903005646 | 84 | 210 | 2.0 | 2.0 | 0.00 | 0.00 | 0.68 | 85 | 1014.2 |
| 20260903005146 | 84 | 207 | 2.0 | 2.0 | 0.00 | 0.00 | 0.68 | 84 | 1014.2 |
| 20260903004647 | 84 | 212 | 2.0 | 2.0 | 0.00 | 0.00 | 0.68 | 84 | 1014.2 |
| 20260903004146 | 84 | 196 | 2.0 | 3.0 | 0.00 | 0.00 | 0.68 | 83 | 1014.2 |
| 20260903003647 | 84 | 175 | 3.0 | 4.0 | 0.00 | 0.00 | 0.68 | 83 | 1014.2 |
| 20260903003147 | 84 | 177 | 2.0 | 3.0 | 0.00 | 0.00 | 0.68 | 83 | 1014.2 |
| 20260903002647 | 84 | 199 | 2.0 | 3.0 | 0.00 | 0.00 | 0.68 | 82 | 1014.2 |
| 20260903002147 | 84 | 167 | 2.0 | 3.0 | 0.00 | 0.00 | 0.68 | 82 | 1014.2 |
| 20260903001647 | 85 | 178 | 2.0 | 3.0 | 0.00 | 0.00 | 0.68 | 82 | 1014.2 |
| 20260903001147 | 85 | 191 | 3.0 | 4.0 | 0.00 | 0.00 | 0.68 | 82 | 1014.2 |
| 20260903000647 | 85 | 182 | 3.0 | 3.0 | 0.00 | 0.00 | 0.68 | 82 | 1014.2 |
| 20260903000146 | 85 | 214 | 4.0 | 5.0 | 0.00 | 0.00 | 0.68 | 81 | 1014.2 |
| 20260902235646 | 85 | 185 | 2.0 | 6.0 | 0.00 | 0.00 | 0.68 | 80 | 1014.2 |
| 20260902235147 | 85 | 186 | 3.0 | 6.0 | 0.00 | 0.00 | 0.68 | 81 | 1014.2 |
| 20260902234646 | 85 | 181 | 3.0 | 5.0 | 0.00 | 0.00 | 0.68 | 80 | 1014.2 |
| 20260902234146 | 86 | 213 | 3.0 | 5.0 | 0.00 | 0.00 | 0.68 | 80 | 1014.2 |
| 20260902233646 | 86 | 242 | 2.0 | 4.0 | 0.00 | 0.00 | 0.68 | 79 | 1014.2 |
| 20260902233146 | 86 | 197 | 3.0 | 4.0 | 0.00 | 0.00 | 0.68 | 79 | 1014.6 |
| 20260902232646 | 86 | 191 | 4.0 | 6.0 | 0.00 | 0.00 | 0.68 | 78 | 1014.2 |
| 20260902232147 | 86 | 194 | 4.0 | 4.0 | 0.00 | 0.00 | 0.68 | 78 | 1014.6 |
| 20260902231647 | 86 | 198 | 5.0 | 6.0 | 0.00 | 0.00 | 0.68 | 78 | 1014.2 |
| 20260902231146 | 86 | 193 | 3.0 | 4.0 | 0.00 | 0.00 | 0.68 | 77 | 1014.2 |
| 20260902230647 | 86 | 177 | 5.0 | 6.0 | 0.00 | 0.00 | 0.68 | 76 | 1014.2 |
| 20260902230146 | 87 | 169 | 2.0 | 6.0 | 0.00 | 0.00 | 0.68 | 76 | 1014.2 |
| 20260902225647 | 87 | 174 | 2.0 | 4.0 | 0.00 | 0.00 | 0.68 | 76 | 1014.2 |
| 20260902225146 | 87 | 172 | 5.0 | 7.0 | 0.00 | 0.00 | 0.68 | 76 | 1014.2 |
| 20260902224646 | 87 | 192 | 2.0 | 5.0 | 0.00 | 0.00 | 0.68 | 76 | 1014.2 |
| 20260902224147 | 87 | 237 | 3.0 | 5.0 | 0.00 | 0.00 | 0.68 | 76 | 1014.2 |
| 20260902223646 | 87 | 158 | 2.0 | 7.0 | 0.00 | 0.00 | 0.68 | 74 | 1014.2 |
| 20260902223147 | 87 | 210 | 5.0 | 6.0 | 0.00 | 0.00 | 0.68 | 74 | 1014.2 |
| 20260902222648 | 87 | 197 | 4.0 | 6.0 | 0.00 | 0.00 | 0.68 | 74 | 1014.2 |
| 20260902222147 | 87 | 208 | 7.0 | 9.0 | 0.00 | 0.00 | 0.68 | 75 | 1014.2 |
| 20260902221646 | 87 | 224 | 6.0 | 8.0 | 0.00 | 0.00 | 0.68 | 75 | 1014.6 |
| 20260902221146 | 87 | 205 | 4.0 | 6.0 | 0.00 | 0.00 | 0.68 | 74 | 1014.6 |
| 20260902220647 | 88 | 198 | 4.0 | 6.0 | 0.00 | 0.00 | 0.68 | 75 | 1014.9 |
| 20260902220146 | 88 | 254 | 3.0 | 4.0 | 0.00 | 0.00 | 0.68 | 73 | 1014.9 |
| 20260902215647 | 87 | 257 | 2.0 | 4.0 | 0.00 | 0.00 | 0.68 | 76 | 1014.6 |
| 20260902215146 | 86 | 339 | 0.0 | 3.0 | 0.00 | 0.00 | 0.68 | 75 | 1014.9 |
| 20260902214647 | 85 | 269 | 0.0 | 3.0 | 0.00 | 0.00 | 0.68 | 81 | 1014.6 |
| 20260902214150 | 84 | 337 | 0.0 | 4.0 | 0.00 | 0.00 | 0.68 | 82 | 1014.9 |
| 20260902213648 | 83 | 314 | 0.0 | 3.0 | 0.00 | 0.00 | 0.68 | 87 | 1014.9 |
| 20260902213146 | 82 | 261 | 2.0 | 3.0 | 0.02 | 0.00 | 0.68 | 90 | 1015.2 |
| 20260902212646 | 82 | 227 | 3.0 | 5.0 | 0.05 | 0.00 | 0.68 | 90 | 1014.9 |
| 20260902212146 | 81 | 274 | 5.0 | 6.0 | 0.02 | 0.00 | 0.67 | 91 | 1014.9 |
| 20260902211646 | 80 | 326 | 4.0 | 5.0 | 0.02 | 0.00 | 0.67 | 92 | 1014.9 |
| 20260902211147 | 80 | 303 | 3.0 | 5.0 | 0.02 | 0.00 | 0.67 | 91 | 1015.2 |
| 20260902210648 | 79 | 319 | 4.0 | 9.0 | 0.00 | 0.00 | 0.67 | 90 | 1014.9 |
| 20260902210147 | 79 | 299 | 5.0 | 9.0 | 0.02 | 0.00 | 0.67 | 91 | 1015.2 |
| 20260902205646 | 79 | 283 | 5.0 | 7.0 | 0.02 | 0.00 | 0.67 | 91 | 1015.6 |
| 20260902205146 | 78 | 325 | 0.0 | 5.0 | 0.00 | 0.00 | 0.66 | 92 | 1015.6 |
| 20260902204646 | 78 | 15 | 2.0 | 7.0 | 0.05 | 0.00 | 0.66 | 96 | 1015.6 |
| 20260902204147 | 78 | 289 | 6.0 | 9.0 | 0.12 | 0.00 | 0.66 | 96 | 1015.2 |
| 20260902203646 | 78 | 305 | 8.0 | 9.0 | 0.28 | 0.00 | 0.65 | 97 | 1015.6 |
| 20260902203147 | 78 | 298 | 8.0 | 12.0 | 0.76 | 0.00 | 0.64 | 97 | 1015.6 |
| 20260902202646 | 78 | 289 | 8.0 | 9.0 | 1.61 | 0.00 | 0.60 | 97 | 1015.9 |
| 20260902202148 | 78 | 259 | 3.0 | 4.0 | 0.94 | 0.00 | 0.49 | 97 | 1015.9 |
| 20260902201646 | 78 | 238 | 5.0 | 8.0 | 0.07 | 0.00 | 0.33 | 96 | 1015.9 |
| 20260902201147 | 78 | 279 | 11.0 | 14.0 | 0.97 | 0.00 | 0.33 | 97 | 1015.6 |
| 20260902200647 | 78 | 269 | 9.0 | 14.0 | 1.84 | 0.00 | 0.31 | 97 | 1015.2 |
| 20260902200146 | 80 | 201 | 12.0 | 18.0 | 1.11 | 0.00 | 0.18 | 94 | 1015.6 |
| 20260902195646 | 82 | 176 | 7.0 | 15.0 | 0.00 | 0.00 | 0.00 | 87 | 1015.6 |
| 20260902195146 | 84 | 209 | 9.0 | 15.0 | 0.00 | 0.00 | 0.00 | 85 | 1015.2 |
| 20260902194646 | 84 | 213 | 7.0 | 16.0 | 0.00 | 0.00 | 0.00 | 83 | 1015.6 |
| 20260902194146 | 84 | 244 | 5.0 | 13.0 | 0.00 | 0.00 | 0.00 | 83 | 1015.2 |
| 20260902193646 | 85 | 206 | 7.0 | 13.0 | 0.00 | 0.00 | 0.00 | 81 | 1015.6 |
| 20260902193146 | 86 | 188 | 8.0 | 10.0 | 0.00 | 0.00 | 0.00 | 80 | 1015.6 |
| 20260902192647 | 86 | 197 | 8.0 | 13.0 | 0.00 | 0.00 | 0.00 | 78 | 1015.6 |
| 20260902192147 | 90 | 202 | 7.0 | 13.0 | 0.00 | 0.00 | 0.00 | 69 | 1015.6 |
| 20260902191648 | 93 | 175 | 10.0 | 10.0 | 0.00 | 0.00 | 0.00 | 62 | 1015.6 |
| 20260902191150 | 94 | 129 | 1.0 | 8.0 | 0.00 | 0.00 | 0.00 | 61 | 1015.2 |
| 20260902190647 | 94 | 173 | 3.0 | 5.0 | 0.00 | 0.00 | 0.00 | 61 | 1015.2 |
| 20260902190146 | 94 | 162 | 5.0 | 9.0 | 0.00 | 0.00 | 0.00 | 59 | 1015.6 |
| 20260902185646 | 94 | 198 | 2.0 | 4.0 | 0.00 | 0.00 | 0.00 | 60 | 1015.6 |
| 20260902185147 | 93 | 55 | 1.0 | 5.0 | 0.00 | 0.00 | 0.00 | 60 | 1015.9 |
| 20260902184646 | 93 | 58 | 4.0 | 9.0 | 0.00 | 0.00 | 0.00 | 58 | 1015.9 |
| 20260902184146 | 93 | 50 | 5.0 | 7.0 | 0.00 | 0.00 | 0.00 | 60 | 1015.9 |
| 20260902183647 | 92 | 65 | 4.0 | 5.0 | 0.00 | 0.00 | 0.00 | 62 | 1015.9 |
| 20260902183146 | 93 | 96 | 5.0 | 6.0 | 0.00 | 0.00 | 0.00 | 62 | 1016.3 |
| 20260902182646 | 92 | 79 | 4.0 | 6.0 | 0.00 | 0.00 | 0.00 | 60 | 1016.3 |
| 20260902182149 | 92 | 24 | 5.0 | 9.0 | 0.00 | 0.00 | 0.00 | 60 | 1016.3 |
| 20260902181647 | 92 | 58 | 4.0 | 8.0 | 0.00 | 0.00 | 0.00 | 59 | 1015.9 |
| 20260902181148 | 92 | 52 | 2.0 | 6.0 | 0.00 | 0.00 | 0.00 | 63 | 1015.9 |
| 20260902180647 | 92 | 174 | 2.0 | 6.0 | 0.00 | 0.00 | 0.00 | 64 | 1015.9 |
| 20260902180148 | 91 | 47 | 4.0 | 10.0 | 0.00 | 0.00 | 0.00 | 63 | 1016.3 |
| 20260902175648 | 91 | 28 | 5.0 | 9.0 | 0.00 | 0.00 | 0.00 | 65 | 1016.3 |
| 20260902175147 | 91 | 70 | 7.0 | 8.0 | 0.00 | 0.00 | 0.00 | 65 | 1015.9 |
| 20260902174647 | 91 | 78 | 6.0 | 9.0 | 0.00 | 0.00 | 0.00 | 67 | 1016.3 |
| 20260902173714 | 91 | 40 | 6.0 | 11.0 | 0.00 | 0.00 | 0.00 | 67 | 1016.6 |
| 20260902173147 | 90 | 27 | 6.0 | 10.0 | 0.00 | 0.00 | 0.00 | 68 | 1016.6 |
| 20260902172649 | 91 | 19 | 6.0 | 10.0 | 0.00 | 0.00 | 0.00 | 68 | 1016.6 |
| 20260902172147 | 91 | 54 | 5.0 | 10.0 | 0.00 | 0.00 | 0.00 | 67 | 1016.6 |
| 20260902171647 | 91 | 44 | 6.0 | 8.0 | 0.00 | 0.00 | 0.00 | 69 | 1016.9 |
| 20260902171147 | 90 | 79 | 5.0 | 9.0 | 0.00 | 0.00 | 0.00 | 69 | 1016.9 |
| 20260902170646 | 90 | 46 | 6.0 | 7.0 | 0.00 | 0.00 | 0.00 | 70 | 1016.9 |
| 20260902170146 | 90 | 32 | 5.0 | 7.0 | 0.00 | 0.00 | 0.00 | 71 | 1016.9 |
| 20260902165647 | 89 | 44 | 4.0 | 11.0 | 0.00 | 0.00 | 0.00 | 72 | 1017.3 |
| 20260902165150 | 89 | 58 | 4.0 | 7.0 | 0.00 | 0.00 | 0.00 | 72 | 1016.9 |
| 20260902164646 | 89 | 28 | 3.0 | 5.0 | 0.00 | 0.00 | 0.00 | 75 | 1016.9 |
| 20260902164146 | 90 | 358 | 2.0 | 6.0 | 0.00 | 0.00 | 0.00 | 72 | 1017.3 |
| 20260902163649 | 90 | 324 | 3.0 | 7.0 | 0.00 | 0.00 | 0.00 | 72 | 1017.3 |
| 20260902163146 | 90 | 16 | 5.0 | 7.0 | 0.00 | 0.00 | 0.00 | 72 | 1017.3 |